This is the latest recevied weather packets stored in our database for station/object AB4KN. If no packets are shown the sender has not sent any weather packets the latest 10 day(s).
| Time | Temp. | Humidity | Pressure | Rain* | Wind** | Luminosity | Snow |
|---|---|---|---|---|---|---|---|
| 1778114119 | 24.44° C | 74% | 1018.1 hPa | 0 mm | - | 0 W/m² | - |
| 1778113814 | 24.44° C | 74% | 1018 hPa | 0 mm | - | 0 W/m² | - |
| 1778113511 | 24.44° C | 74% | 1018.1 hPa | 0 mm | - | 0 W/m² | - |
| 1778113207 | 24.44° C | 74% | 1018 hPa | 0 mm | - | 0 W/m² | - |
| 1778112904 | 25° C | 73% | 1018 hPa | 0 mm | - | 0 W/m² | - |
| 1778112601 | 25° C | 73% | 1018 hPa | 0 mm | - | 0 W/m² | - |
| 1778112297 | 25° C | 73% | 1018 hPa | 0 mm | - | 0 W/m² | - |
| 1778111992 | 25° C | 73% | 1017.9 hPa | 0 mm | - | 0 W/m² | - |
| 1778111690 | 25° C | 73% | 1018.2 hPa | 0 mm | - | 0 W/m² | - |
| 1778111386 | 25° C | 73% | 1018.1 hPa | 0 mm | - | 3 W/m² | - |
| 1778111084 | 25° C | 73% | 1017.7 hPa | 0 mm | - | 4 W/m² | - |
| 1778110781 | 25° C | 72% | 1017.5 hPa | 0 mm | - | 5 W/m² | - |
| 1778110477 | 25° C | 73% | 1017.3 hPa | 0 mm | - | 7 W/m² | - |
| 1778110174 | 25° C | 73% | 1017.2 hPa | 0 mm | - | 5 W/m² | - |
| 1778109870 | 25° C | 72% | 1017.4 hPa | 0 mm | - | 6 W/m² | - |
| 1778109566 | 25° C | 71% | 1017.4 hPa | 0 mm | - | 4 W/m² | - |
| 1778109264 | 25° C | 71% | 1017.7 hPa | 0 mm | - | 4 W/m² | - |
| 1778108961 | 25.56° C | 71% | 1017.7 hPa | 0 mm | - | 2 W/m² | - |
| 1778108657 | 25.56° C | 71% | 1017.3 hPa | 0 mm | - | 2 W/m² | - |
| 1778108354 | 25.56° C | 71% | 1017.7 hPa | 0 mm | - | 4 W/m² | - |
| 1778108051 | 25.56° C | 71% | 1017.7 hPa | 0 mm | - | 2 W/m² | - |
| 1778107748 | 25.56° C | 70% | 1017.8 hPa | 0 mm | - | 2 W/m² | - |
| 1778107446 | 25.56° C | 70% | 1017.8 hPa | 0 mm | - | 3 W/m² | - |
| 1778107141 | 25.56° C | 70% | 1017.7 hPa | 0 mm | - | 5 W/m² | - |
| 1778106837 | 25.56° C | 69% | 1017.7 hPa | 0 mm | - | 29 W/m² | - |
* Rain latest hour (hover to see other rain measurements)
** Current wind speed in m/s (hover to see current wind gust speed)